Date,TemperatureHighF,TemperatureAvgF,TemperatureLowF,DewpointHighF,DewpointAvgF,DewpointLowF,HumidityHigh,HumidityAvg,HumidityLow,PressureMaxIn,PressureMinIn,WindSpeedMaxMPH,WindSpeedAvgMPH,GustSpeedMaxMPH,PrecipitationSumIn
2013-1-1,20.8,5.9,-14.1,11.4,-4.5,-24.2,67,61,59,28.64,28.35,0,0,0,0.00
2013-1-2,18.3,14.8,13.5,8.5,5.3,3.2,68,65,62,28.35,28.29,0,0,0,0.00
2013-1-4,32.0,22.3,10.4,8.5,4.3,-1.1,59,46,35,28.53,28.47,0,0,0,0.00
2013-1-5,13.3,9.6,7.2,1.6,-1.8,-4.1,59,59,59,28.47,28.35,0,0,0,0.00
2013-1-6,15.8,13.0,8.8,8.5,3.1,-2.3,74,64,60,28.61,28.26,9,4,12,0.00
2013-1-7,37.8,25.6,12.2,15.6,10.6,1.0,68,54,36,28.35,28.20,17,8,23,0.00
2013-1-8,33.3,22.7,10.0,19.4,10.9,0.6,71,61,48,28.35,28.11,13,5,15,0.00
2013-1-9,33.6,25.0,18.3,16.7,9.0,5.2,60,50,38,28.70,28.26,19,8,20,0.00
2013-1-10,42.1,36.0,22.3,29.8,17.0,9.4,89,48,31,28.56,28.05,33,15,38,0.28
2013-1-11,34.3,33.1,32.5,34.3,32.3,29.9,100,97,90,28.05,27.88,8,0,9,0.20
2013-1-12,1.8,-2.3,-3.8,-8.9,-12.7,-14.2,60,60,60,28.53,28.41,0,0,0,0.00
2013-1-13,8.6,-0.1,-6.3,-2.4,-10.7,-16.6,60,60,60,28.61,28.50,0,0,0,0.00
2013-1-14,12.2,4.4,-2.2,1.0,-6.4,-12.7,60,60,60,28.76,28.61,0,0,0,0.00
2013-1-15,20.1,13.2,2.5,9.9,-1.9,-8.2,64,51,37,28.61,28.08,0,0,0,0.00
2013-1-16,31.6,14.1,-4.4,29.0,-1.3,-25.6,91,52,34,28.70,27.99,0,0,0,0.00
2013-1-17,15.8,6.3,-3.1,-3.1,-14.9,-24.5,44,36,34,28.76,28.59,0,0,0,0.00
2013-1-18,35.1,21.3,10.0,15.9,6.6,-11.0,66,53,37,28.59,28.14,8,1,10,0.00
2013-1-19,29.1,20.1,0.0,23.6,10.2,-14.6,84,66,49,28.50,28.11,15,5,20,0.00
2013-1-20,5.0,-4.8,-13.7,-10.0,-19.1,-27.4,49,49,49,28.76,28.70,13,4,17,0.00
2013-1-21,-6.0,-13.4,-18.4,-20.2,-27.1,-31.7,49,49,49,28.73,28.64,11,4,14,0.00
2013-1-22,2.5,-8.4,-20.9,-12.3,-22.5,-34.1,49,49,49,28.73,28.59,10,4,12,0.00
2013-1-23,5.5,-3.0,-17.7,-9.5,-17.4,-31.1,49,49,49,29.00,28.53,13,5,14,0.00
2013-1-24,9.7,-4.8,-16.8,-5.6,-19.1,-30.2,49,49,49,29.03,28.47,18,8,18,0.00
2013-1-25,12.4,2.6,-10.5,-3.1,-12.2,-24.4,49,49,49,28.70,28.32,17,6,19,0.00
2013-1-26,14.4,4.9,-10.7,-2.0,-10.8,-24.5,49,47,41,28.70,28.47,14,6,14,0.00
2013-1-27,29.7,21.3,10.0,16.7,5.9,-6.2,63,51,46,28.47,28.23,10,6,10,0.00
2013-1-28,32.2,29.6,27.0,31.9,26.3,16.1,99,88,63,28.26,28.11,9,3,13,0.00
2013-1-29,28.4,22.7,11.8,26.9,15.0,0.6,94,73,57,28.32,28.05,12,1,12,0.00
2013-1-30,11.7,6.5,-1.8,0.5,-4.4,-12.3,60,60,60,28.29,22.47,12,5,17,0.00
2013-1-31,-2.2,-9.3,-20.7,-12.7,-19.4,-30.3,60,60,60,28.67,28.26,13,5,17,0.00
2013-2-1,-1.8,-12.2,-26.0,-12.3,-22.2,-35.2,60,60,60,28.67,28.44,9,3,11,0.00
2013-2-2,6.4,-2.1,-14.4,-4.5,-12.6,-24.3,60,60,60,28.56,28.38,13,3,15,0.00
2013-2-3,10.0,3.6,-4.7,-1.1,-7.2,-15.1,60,60,60,28.50,28.38,10,3,10,0.00
2013-2-4,16.9,5.1,-4.7,6.1,-5.7,-15.1,62,60,60,28.47,28.05,18,6,21,0.00
2013-2-5,23.5,15.0,6.1,14.9,-1.3,-14.6,69,49,36,28.47,28.02,15,4,15,0.00
2013-2-6,23.5,16.1,5.0,10.6,0.3,-15.6,68,50,37,28.50,28.32,12,5,15,0.00
2013-2-7,25.3,19.3,7.5,11.2,6.9,-3.8,69,59,44,28.73,28.50,8,2,9,0.04
2013-2-8,22.8,13.2,-1.7,9.6,0.4,-12.5,63,56,47,28.73,28.50,15,5,17,0.00
2013-2-9,27.9,25.9,20.5,26.0,18.5,9.6,94,74,62,28.50,28.32,15,8,15,0.00
2013-2-10,28.0,26.0,23.2,26.5,20.7,14.5,94,81,69,28.32,27.91,14,5,19,0.00
2013-2-11,23.2,17.6,9.5,14.5,5.5,-1.9,69,58,49,28.44,27.99,0,0,0,0.00
2013-2-12,28.9,19.5,10.2,10.9,6.1,-0.2,64,56,40,28.41,28.20,0,0,0,0.00
2013-2-13,33.4,25.5,16.7,19.4,14.4,7.3,72,63,48,28.20,28.02,0,0,0,0.00
2013-2-14,21.6,19.3,15.6,12.6,10.6,6.9,69,68,68,28.23,28.17,0,0,0,0.00
2013-2-15,17.2,6.0,-4.7,-3.6,-14.6,-24.3,44,37,36,28.73,28.64,8,2,10,0.00
2013-2-16,14.2,9.1,3.9,-0.8,-9.6,-16.5,51,42,37,28.64,28.44,9,4,10,0.00
2013-2-17,27.1,21.0,9.1,15.0,8.0,-5.7,64,57,50,28.44,27.99,15,9,17,0.00
2013-2-18,28.2,12.6,-2.0,18.7,-0.4,-15.3,69,55,52,28.41,27.94,20,7,20,0.00
2013-2-19,-0.6,-7.4,-16.4,-14.0,-20.4,-28.8,52,52,52,28.82,28.41,12,5,17,0.00
2013-2-20,13.3,-1.0,-18.9,-1.0,-14.4,-31.2,52,52,52,28.85,28.76,9,4,10,0.00
2013-2-21,21.9,11.9,1.2,1.6,-5.8,-12.3,52,45,35,28.85,28.56,10,6,10,0.00
2013-2-22,27.0,20.4,15.1,12.3,7.9,1.6,67,58,47,28.56,28.32,8,2,9,0.00
2013-2-23,27.0,17.5,6.8,11.5,5.5,-3.8,68,59,47,28.38,28.29,5,1,6,0.04
2013-2-24,26.2,12.6,0.3,8.3,-3.0,-9.9,63,50,36,28.50,28.38,9,3,10,0.00
2013-2-25,26.4,20.5,14.0,14.6,9.6,-2.8,75,62,46,28.53,28.47,10,5,11,0.04
2013-2-26,33.4,20.5,12.9,21.1,9.7,2.2,78,63,45,28.50,28.44,5,1,6,0.00
2013-2-27,31.6,21.6,12.6,10.2,5.7,-0.9,61,51,35,28.56,28.44,14,4,14,0.00
2013-2-28,24.6,23.7,21.7,12.4,11.2,10.0,61,58,57,28.61,28.56,5,2,7,0.00
2013-3-1,32.7,21.5,11.7,6.8,2.0,-1.0,56,43,33,28.82,28.76,6,2,8,0.00
2013-3-2,25.7,16.0,1.8,2.5,-2.7,-10.3,56,44,34,28.76,28.53,10,4,11,0.00
2013-3-3,28.9,23.0,14.0,4.8,1.6,-1.6,52,39,33,28.53,28.35,16,8,16,0.00
2013-3-4,25.0,22.7,21.9,13.3,9.1,-0.1,68,56,34,28.35,28.32,20,7,20,0.00
2013-3-5,34.5,25.0,20.3,14.4,10.1,8.3,59,53,40,28.76,28.59,8,3,13,0.16
2013-3-6,28.4,20.2,9.7,8.3,4.4,-3.2,60,50,36,28.85,28.73,7,2,8,0.00
2013-3-7,26.8,17.3,6.8,8.5,1.8,-5.9,60,50,39,28.76,28.61,14,6,15,0.00
2013-3-8,32.7,26.3,20.8,18.0,11.8,7.0,60,54,48,28.67,28.47,10,4,10,0.00
2013-3-9,35.1,31.5,24.1,31.9,26.9,14.0,88,83,63,28.47,28.17,7,0,8,0.16
2013-3-10,32.0,22.7,12.2,14.0,9.6,0.6,67,57,43,28.56,28.35,6,1,10,0.20
2013-3-11,28.9,16.1,4.5,7.8,0.6,-6.7,60,51,35,28.47,28.23,8,2,9,0.04
2013-3-12,25.3,18.3,13.5,5.3,3.4,0.3,61,52,39,28.67,28.29,14,4,22,0.00
2013-3-13,27.7,15.6,0.7,7.0,0.0,-9.6,61,51,34,28.76,28.59,10,4,10,0.16
2013-3-14,39.6,27.3,18.7,19.2,14.2,7.0,73,58,41,28.59,28.47,10,5,10,0.08
2013-3-15,29.8,24.5,18.1,16.1,12.3,7.3,68,59,46,28.47,28.32,9,3,12,0.08
2013-3-16,17.8,6.4,-5.1,7.0,-8.7,-24.7,62,50,37,28.67,28.44,11,2,11,0.04
2013-3-17,19.4,6.2,-10.5,10.7,-12.0,-29.5,69,43,37,28.70,28.14,17,8,20,0.00
2013-3-18,29.7,20.0,14.2,28.4,12.2,2.7,95,72,57,28.14,27.85,26,11,26,0.00
2013-3-19,12.6,7.3,4.6,-6.2,-11.0,-13.4,42,42,42,28.67,28.61,15,5,16,0.00
2013-3-20,16.9,9.4,-0.8,-5.0,-10.9,-20.8,42,38,36,28.67,28.59,12,5,20,0.00
2013-3-21,28.2,9.8,-5.8,3.1,-11.7,-25.3,50,36,33,28.59,28.47,6,1,6,0.04
2013-3-22,37.4,16.5,0.0,9.6,-5.0,-20.1,53,38,31,28.53,28.47,5,1,6,0.00
2013-3-23,35.1,20.7,8.4,10.2,2.9,-6.4,58,46,35,28.59,28.53,8,3,9,0.00
2013-3-24,35.6,25.5,18.3,13.6,9.3,6.1,60,50,32,28.59,28.53,8,3,10,0.00
2013-3-25,35.1,25.5,14.2,10.4,8.2,1.7,57,48,35,28.73,28.59,11,4,13,0.00
2013-3-26,37.4,19.8,7.5,11.6,3.1,-3.8,64,49,32,28.73,28.70,8,2,8,0.00
2013-3-27,36.3,24.9,12.0,11.8,6.9,1.1,63,47,34,28.76,28.70,8,3,9,0.00
2013-3-28,38.7,30.0,18.7,18.1,12.5,4.8,58,48,39,28.73,28.67,10,5,11,0.00
2013-3-29,46.0,34.9,22.5,28.3,18.7,9.9,69,52,42,28.67,28.41,8,4,232,0.00
2013-3-30,48.6,37.7,30.0,33.9,25.1,18.2,89,62,34,28.41,28.32,8,3,8,0.08
2013-3-31,32.7,26.3,13.5,28.8,9.6,-2.6,91,51,33,28.61,28.26,13,6,17,0.00
2013-4-1,30.6,18.8,9.3,4.9,-0.5,-5.6,53,43,33,28.70,28.61,9,4,13,0.00
2013-4-2,35.8,22.8,9.5,8.8,3.7,-3.0,64,45,32,28.76,28.67,8,2,11,0.00
2013-4-3,38.5,23.6,12.7,19.5,7.6,0.4,65,51,38,28.76,28.50,18,7,24,0.00
2013-4-4,36.5,28.5,19.6,10.9,8.8,6.1,55,44,34,28.67,28.61,10,3,14,0.00
2013-4-5,32.2,25.2,14.4,19.9,11.2,3.0,68,55,40,28.67,28.29,14,6,15,0.00
2013-4-6,40.6,34.9,32.2,24.0,20.9,18.6,65,56,47,28.29,28.08,11,5,15,0.00
2013-4-7,36.3,33.6,31.5,25.7,21.4,18.4,72,61,48,28.35,28.23,6,0,9,0.04
2013-4-8,40.5,35.5,33.3,34.3,27.7,18.4,91,75,50,28.47,28.20,0,0,0,0.04
2013-4-9,36.1,27.7,16.2,11.2,6.5,0.4,50,40,32,28.70,28.59,7,3,12,0.00
2013-4-10,38.8,34.2,28.0,10.8,8.7,5.7,41,34,31,28.70,28.41,10,4,14,0.00
2013-4-11,34.9,30.4,26.6,20.2,14.1,4.7,69,52,32,28.44,28.23,24,8,24,0.16
2013-4-12,36.7,29.5,25.3,18.6,15.3,13.3,63,55,39,28.32,28.23,8,2,9,0.04
2013-4-13,36.9,29.2,21.7,19.5,11.6,5.2,70,49,34,28.38,28.29,8,3,8,0.08
2013-4-14,34.3,28.9,24.1,28.2,15.7,6.9,91,60,37,28.38,27.88,17,10,26,0.00
2013-4-15,37.4,33.3,30.7,33.7,25.7,19.0,95,75,48,28.41,27.82,12,1,13,0.20
2013-4-16,38.3,32.6,27.3,23.2,17.2,13.3,76,54,39,28.76,28.41,0,0,0,0.00
2013-4-17,40.5,34.0,30.0,22.1,18.4,14.6,65,53,38,28.79,28.53,0,0,0,0.00
2013-4-18,37.0,32.8,30.2,26.1,20.9,14.1,79,62,46,28.53,28.20,0,0,0,0.16
2013-4-19,37.9,31.2,23.0,13.9,10.7,6.2,52,42,32,28.47,28.14,0,0,0,0.00
2013-4-20,36.1,27.3,15.3,13.0,7.4,4.2,64,44,32,28.67,28.47,0,0,232,0.00
2013-4-21,37.4,33.2,28.0,33.3,22.2,6.1,92,65,38,28.67,28.44,18,4,20,0.31
2013-4-22,37.8,30.7,25.2,18.8,14.6,8.2,66,52,37,28.73,28.59,10,3,13,0.00
2013-4-23,38.3,28.9,18.5,12.4,9.4,5.9,60,44,31,28.70,28.47,11,4,13,0.00
2013-4-24,33.1,29.9,25.2,23.5,18.4,11.7,69,62,52,28.47,28.35,9,3,10,0.08
2013-4-25,40.8,34.0,24.4,20.0,17.1,13.4,66,51,36,28.59,28.44,15,4,15,0.04
2013-4-26,65.5,48.7,34.2,29.1,23.2,17.9,55,38,25,28.59,28.35,13,4,13,0.00
2013-4-27,68.4,55.3,42.1,33.1,26.1,20.1,46,33,25,28.56,28.26,20,9,22,0.00
2013-4-28,64.4,54.3,42.4,36.6,29.5,19.0,48,39,28,28.29,28.14,15,7,16,0.00
2013-4-29,66.4,50.1,30.9,29.5,23.3,16.7,60,37,25,28.35,27.96,12,5,14,0.00
2013-4-30,61.3,53.3,37.4,42.8,28.4,16.7,67,40,26,28.47,27.79,25,9,32,0.00
2013-5-1,39.9,33.3,29.5,17.7,11.6,7.8,47,40,33,28.88,28.47,12,5,17,0.00